Location: Newark
(35.5470°N, 95.4930°W)
Time: 15:16:28
(UTC+00:00)

Hubble Space Telescope - Visible Passes

Search period start: 17 February 2020 00:00
Search period end: 27 February 2020 00:00
Orbit: 536 x 540 km, 28.5° (Epoch: 16 February)

Date Brightness Start Highest point End Pass type
(mag) Time Alt. Az. Time Alt. Az. Time Alt. Az.
18 Feb 3.3 01:51:08 10° S 01:51:25 11° S 01:51:25 11° S visible
19 Feb 2.9 01:39:39 10° SSW 01:41:36 14° SSE 01:41:36 14° SSE visible
20 Feb 2.7 01:28:27 10° SSW 01:31:09 17° SSE 01:31:45 16° SSE visible
21 Feb 2.5 01:17:25 10° SSW 01:20:26 19° SSE 01:21:52 16° SE visible
22 Feb 2.4 01:06:29 10° SW 01:09:42 22° SSE 01:11:57 15° SE visible
22 Feb 3.7 02:46:47 10° WSW 02:47:17 13° WSW 02:47:17 13° WSW visible
23 Feb 2.3 00:55:37 10° SW 00:59:00 24° S 01:02:00 12° ESE visible
23 Feb 3.3 02:36:06 10° WSW 02:37:21 17° SW 02:37:21 17° SW visible
24 Feb 2.3 00:44:47 10° SW 00:48:18 27° S 00:51:48 10° ESE visible
24 Feb 2.8 02:25:27 10° WSW 02:27:23 22° SW 02:27:23 22° SW visible
25 Feb 2.2 00:34:00 10° SW 00:37:36 28° S 00:41:11 10° ESE visible
25 Feb 2.5 02:14:49 10° WSW 02:17:26 25° SSW 02:17:26 25° SSW visible
26 Feb 2.3 02:04:12 10° WSW 02:07:30 25° SSW 02:07:30 25° SSW visible
